sat.trackr.live / text

‹ back to catalog

APSTAR-7

NORAD 38107 · 2012-013A

PAYLOAD ACTIVE UNKNOWN

§ Identity

Operator
Country
PRC
Launch date
2012-03-31
Launch site
XICLF
Launch vehicle
Mass (kg)
RCS (m²)
0.00

Purposes: comms

External: N2YO · Heavens-Above · Gunter

§ Orbital elements

Epoch: 2026-05-25T02:23:45.566880Z

Period
1,436.10 min
Inclination
0.0415°
Eccentricity
0.0002424
Mean motion
1.00271360 rev/d
Perigee alt
35,776.5 km
Apogee alt
35,796.9 km
Semi-major
42,164.9 km
B*
0.0000e+0
RAAN
109.9963°
Arg perigee
316.5155°
Mean anomaly
288.6228°
Rev number
5,157

§ Raw data

APSTAR-71 38107U 12013A   26145.09983295 -.00000104  00000+0  00000+0 0  99932 38107   0.0415 109.9963 0002424 316.5155 288.6228  1.00271360 51570

JSON: /api/v1/satellites/38107 · /tle

For live sub-satellite position, see the globe view (requires WebGL).

§ Visibility from observer

Set your observer location to see the next 7 days of passes ≥ 10°. The values pass through the URL so the page stays shareable.

No JS? Fill the form by hand. The geolocation button needs JavaScript.